Volver al catálogo

COSMOS 2251 DEB

ActivoLEO
NORAD 36559·DEBRIS·🇷🇺 Russia

Lanzado Jun 16, 1993 desde Plesetsk Cosmodrome

Loading…

Próximos Pases (próximas 24 horas)

TLE

ActualizadoSource: Space-Track

Época: Sep 14, 2026, 10:02 UTC

1 36559U 93036BDV 26257.41808716  .00003605  00000-0  18867-2 0  9992
2 36559  74.1221 257.0597 0263490 224.5956 133.3712 13.98392107849441

Sigue COSMOS 2251 DEB en tiempo real con AllMySat

Download on the App Store